TimeCDT,TemperatureF,Dew PointF,Humidity,Sea Level PressureIn,VisibilityMPH,Wind Direction,Wind SpeedMPH,Gust SpeedMPH,PrecipitationIn,Events,Conditions,WindDirDegrees,DateUTC
12:53 AM,73.0,72.0,96,29.97,6.0,SSW,4.6,-,N/A,,Overcast,210,2013-06-19 05:53:00
1:53 AM,72.0,71.1,97,29.96,3.0,Calm,Calm,-,N/A,,Mostly Cloudy,0,2013-06-19 06:53:00
2:20 AM,71.6,71.6,100,29.96,1.8,Calm,Calm,-,N/A,,Overcast,0,2013-06-19 07:20:00
2:42 AM,71.6,71.6,100,29.96,2.5,Calm,Calm,-,N/A,,Overcast,0,2013-06-19 07:42:00
2:53 AM,72.0,71.1,97,29.96,1.0,Calm,Calm,-,N/A,,Overcast,0,2013-06-19 07:53:00
3:19 AM,71.6,71.6,100,29.96,0.5,Calm,Calm,-,N/A,Fog,Fog,0,2013-06-19 08:19:00
3:41 AM,71.6,71.6,100,29.96,1.2,WSW,3.5,-,N/A,,Overcast,250,2013-06-19 08:41:00
3:50 AM,71.6,71.6,100,29.96,0.5,WSW,3.5,-,N/A,Fog,Fog,250,2013-06-19 08:50:00
3:53 AM,72.0,71.1,97,29.96,0.5,WSW,3.5,-,N/A,Fog,Fog,240,2013-06-19 08:53:00
4:07 AM,71.6,71.6,100,29.96,0.2,Calm,Calm,-,N/A,Fog,Fog,0,2013-06-19 09:07:00
4:53 AM,72.0,71.1,97,29.97,0.5,SW,3.5,-,N/A,Fog,Fog,230,2013-06-19 09:53:00
5:53 AM,72.0,71.1,97,29.99,0.5,Calm,Calm,-,N/A,Fog,Fog,0,2013-06-19 10:53:00
6:24 AM,71.6,71.6,100,30.01,1.8,Calm,Calm,-,N/A,,Overcast,0,2013-06-19 11:24:00
6:31 AM,71.6,71.6,100,30.01,2.5,Calm,Calm,-,N/A,,Overcast,0,2013-06-19 11:31:00
6:44 AM,71.6,71.6,100,30.01,1.8,Calm,Calm,-,N/A,,Overcast,0,2013-06-19 11:44:00
6:53 AM,72.0,71.1,97,30.01,1.5,Calm,Calm,-,N/A,,Overcast,0,2013-06-19 11:53:00
7:05 AM,71.6,71.6,100,30.02,2.5,Calm,Calm,-,N/A,,Overcast,0,2013-06-19 12:05:00
7:14 AM,71.6,71.6,100,30.02,2.0,South,3.5,-,N/A,,Overcast,190,2013-06-19 12:14:00
7:21 AM,71.6,71.6,100,30.02,1.8,Calm,Calm,-,N/A,,Overcast,0,2013-06-19 12:21:00
7:35 AM,71.6,71.6,100,30.03,2.0,Calm,Calm,-,N/A,,Overcast,0,2013-06-19 12:35:00
7:42 AM,71.6,71.6,100,30.03,1.2,Calm,Calm,-,N/A,,Overcast,0,2013-06-19 12:42:00
7:53 AM,72.0,72.0,100,30.03,0.8,Calm,Calm,-,N/A,,Overcast,0,2013-06-19 12:53:00
8:02 AM,71.6,71.6,100,30.03,2.0,Calm,Calm,-,N/A,,Overcast,0,2013-06-19 13:02:00
8:46 AM,73.4,71.6,94,30.03,5.0,Calm,Calm,-,N/A,,Overcast,0,2013-06-19 13:46:00
8:53 AM,73.0,72.0,96,30.03,5.0,Calm,Calm,-,N/A,,Overcast,0,2013-06-19 13:53:00
9:53 AM,75.0,72.0,90,30.04,3.0,Calm,Calm,-,0.00,Rain,Light Rain,0,2013-06-19 14:53:00
10:10 AM,75.2,71.6,89,30.04,5.0,Calm,Calm,-,0.00,,Overcast,0,2013-06-19 15:10:00
10:53 AM,77.0,72.0,84,30.04,6.0,Calm,Calm,-,0.00,,Haze,0,2013-06-19 15:53:00
11:26 AM,78.8,71.6,78,30.04,10.0,Calm,Calm,-,N/A,,Haze,0,2013-06-19 16:26:00
11:46 AM,80.6,71.6,74,30.04,10.0,Calm,Calm,-,N/A,,Haze,0,2013-06-19 16:46:00
11:53 AM,82.0,73.0,74,30.04,10.0,Calm,Calm,-,N/A,,Haze,0,2013-06-19 16:53:00
12:39 PM,80.6,71.6,74,30.03,10.0,SSW,4.6,-,N/A,,Haze,200,2013-06-19 17:39:00
12:53 PM,82.9,72.0,69,30.03,10.0,SE,5.8,-,N/A,,Haze,130,2013-06-19 17:53:00
1:10 PM,82.4,71.6,70,30.02,10.0,ESE,3.5,-,N/A,,Haze,110,2013-06-19 18:10:00
1:53 PM,86.0,73.0,65,30.01,10.0,Variable,3.5,-,N/A,,Mostly Cloudy,0,2013-06-19 18:53:00
2:00 PM,84.2,71.6,66,30.02,10.0,SE,5.8,-,N/A,,Clear,140,2013-06-19 19:00:00
2:53 PM,86.0,72.0,63,30.00,10.0,Calm,Calm,-,N/A,,Partly Cloudy,0,2013-06-19 19:53:00
3:53 PM,86.0,70.0,59,29.99,10.0,Calm,Calm,-,N/A,,Clear,0,2013-06-19 20:53:00
4:53 PM,89.1,69.1,52,29.98,10.0,NNE,4.6,-,N/A,,Clear,30,2013-06-19 21:53:00
5:53 PM,87.1,70.0,57,29.97,10.0,ENE,3.5,-,N/A,,Scattered Clouds,70,2013-06-19 22:53:00
6:53 PM,86.0,71.1,61,29.97,10.0,Calm,Calm,-,N/A,,Clear,0,2013-06-19 23:53:00
7:53 PM,82.9,73.0,72,29.98,10.0,Calm,Calm,-,N/A,,Mostly Cloudy,0,2013-06-20 00:53:00
8:53 PM,80.1,73.9,81,29.99,10.0,Calm,Calm,-,N/A,,Clear,0,2013-06-20 01:53:00
9:53 PM,77.0,73.9,90,30.01,10.0,Calm,Calm,-,N/A,,Clear,0,2013-06-20 02:53:00
10:53 PM,75.9,73.0,91,30.01,10.0,Calm,Calm,-,N/A,,Clear,0,2013-06-20 03:53:00
11:53 PM,73.9,72.0,93,30.03,10.0,Calm,Calm,-,N/A,,Clear,0,2013-06-20 04:53:00